Date String (YYYY-MM-DD hh:mm:ss) UTC,Instrument flags,absolute air pressure of the measurement (hPa),sample flow rate (lpm),inlet stack bypass flow (lpm),air temperature of the measurement (°C),ambient temperature measured by the external sensor (°C),aerosol sample conditioner tube jacket temperature (°C),OPC LED temperature (°C),internal box temperature (°C),relative humidity of the measurement (%),span deviation,mass concentration of particles derived from Lorenz-Mie calculation of OPC scattering (μg/m³),mass concentration of particles derived from Lorenz-Mie calculation of OPC scattering (μg/m³),mass concentration of particles derived from Lorenz-Mie calculation of OPC scattering (μg/m³)
DateTimeUTC,F1_M11,P_M11,Q1_M11,Q2_M11,T1_M11,T2_M11,T3_M11,T4_M11,T5_M11,U1_M11,ZSPAN_M11,X2_M11,X0_M11,X1_M11
2024-01-30 09:00:00,SystemResetWarning,0836.1,5.00,000.00,022.9,021.6,000.0,031.3,024.3,16.4,0000.0,0002.60,0007.35,0002.08
2024-01-30 09:01:00,SystemResetWarning,0836.0,5.00,000.00,022.9,021.6,000.0,031.3,024.3,16.4,0000.0,0002.59,0007.53,0002.07
2024-01-30 09:02:00,SystemResetWarning,0836.0,5.01,000.00,022.9,021.6,000.0,031.3,024.3,16.4,0000.0,0002.57,0007.95,0002.06
2024-01-30 09:03:00,SystemResetWarning,0836.0,5.01,000.00,022.9,021.6,000.0,031.3,024.3,16.4,0000.0,0002.62,0008.11,0002.06
2024-01-30 09:04:00,SystemResetWarning,0835.9,5.01,000.00,022.9,021.6,000.0,031.3,024.3,16.4,0000.0,0002.63,0007.64,0002.06
2024-01-30 09:05:00,SystemResetWarning,0835.9,5.00,000.00,022.9,021.6,000.0,031.3,024.3,16.4,0000.0,0002.63,0008.40,0002.05
2024-01-30 09:06:00,SystemResetWarning,0835.9,5.00,000.00,022.9,021.6,000.0,031.3,024.3,16.4,0000.0,0002.63,0008.00,0002.06
2024-01-30 09:07:00,SystemResetWarning,0835.9,5.00,000.00,022.9,021.6,000.0,031.3,024.3,16.4,0000.0,0002.65,0008.02,0002.07
2024-01-30 09:08:00,SystemResetWarning,0835.9,5.00,000.00,022.9,021.6,000.0,031.2,024.3,16.4,0000.0,0002.60,0007.91,0002.06
2024-01-30 09:09:00,SystemResetWarning,0835.9,4.99,000.00,022.9,021.6,000.0,031.2,024.2,16.4,0000.0,0002.60,0007.92,0002.06
2024-01-30 09:10:00,SystemResetWarning,0835.9,5.00,000.00,022.9,021.6,000.0,031.2,024.2,16.4,0000.0,0002.60,0007.93,0002.08
2024-01-30 09:11:00,SystemResetWarning,0835.9,5.01,000.00,022.9,021.6,000.0,031.2,024.2,16.4,0000.0,0002.63,0007.65,0002.09
2024-01-30 09:12:00,SystemResetWarning,0835.9,5.01,000.00,022.9,021.6,000.0,031.2,024.2,16.4,0000.0,0002.61,0007.50,0002.09
2024-01-30 09:13:00,SystemResetWarning,0835.8,5.01,000.00,022.8,021.6,000.0,031.2,024.2,16.4,0000.0,0002.64,0007.48,0002.11
2024-01-30 09:14:00,SystemResetWarning,0835.8,5.00,000.00,022.8,021.6,000.0,031.2,024.2,16.4,0000.0,0002.64,0007.46,0002.13
2024-01-30 09:15:00,SystemResetWarning,0835.8,5.00,000.00,022.8,021.5,000.0,031.2,024.2,16.4,0000.0,0002.67,0007.24,0002.14
2024-01-30 09:16:00,SystemResetWarning,0835.8,5.00,000.00,022.8,021.5,000.0,031.2,024.2,16.4,0000.0,0002.72,0005.73,0002.15
2024-01-30 09:17:00,SystemResetWarning,0835.8,5.00,000.00,022.8,021.5,000.0,031.2,024.2,16.4,0000.0,0002.70,0005.14,0002.15
2024-01-30 09:18:00,SystemResetWarning,0835.8,4.99,000.00,022.8,021.5,000.0,031.2,024.2,16.4,0000.0,0002.70,0005.06,0002.16
2024-01-30 09:19:00,SystemResetWarning,0835.8,5.00,000.00,022.8,021.5,000.0,031.2,024.2,16.4,0000.0,0002.71,0005.09,0002.19
2024-01-30 09:20:00,SystemResetWarning,0835.7,5.00,000.00,022.8,021.5,000.0,031.2,024.2,16.4,0000.0,0002.71,0005.12,0002.20
2024-01-30 09:21:00,SystemResetWarning,0835.7,5.00,000.00,022.8,021.5,000.0,031.1,024.2,16.4,0000.0,0002.72,0005.24,0002.20
2024-01-30 09:22:00,SystemResetWarning,0835.7,5.00,000.00,022.8,021.5,000.0,031.1,024.2,16.4,0000.0,0002.74,0005.57,0002.21
2024-01-30 09:23:00,SystemResetWarning,0835.7,5.01,000.00,022.8,021.5,000.0,031.1,024.2,16.4,0000.0,0002.81,0005.95,0002.22
2024-01-30 09:24:00,SystemResetWarning,0835.6,5.00,000.00,022.8,021.5,000.0,031.1,024.1,16.4,0000.0,0002.83,0005.47,0002.22
2024-01-30 09:25:00,SystemResetWarning,0835.6,4.99,000.00,022.8,021.4,000.0,031.1,024.1,16.4,0000.0,0002.82,0005.15,0002.21
2024-01-30 09:26:00,SystemResetWarning,0835.6,5.00,000.00,022.8,021.4,000.0,031.1,024.1,16.4,0000.0,0002.81,0005.16,0002.21
2024-01-30 09:27:00,SystemResetWarning,0835.6,5.00,000.00,022.7,021.4,000.0,031.1,024.1,16.4,0000.0,0002.78,0005.20,0002.21
2024-01-30 09:28:00,SystemResetWarning,0835.6,5.00,000.00,022.7,021.4,000.0,031.1,024.1,16.4,0000.0,0002.75,0005.12,0002.19
2024-01-30 09:29:00,SystemResetWarning,0835.6,5.01,000.00,022.7,021.4,000.0,031.1,024.1,16.4,0000.0,0002.73,0005.03,0002.19
2024-01-30 09:30:00,SystemResetWarning,0835.6,5.00,000.00,022.7,021.4,000.0,031.1,024.1,16.5,0000.0,0002.73,0005.03,0002.16
2024-01-30 09:31:00,SystemResetWarning,0835.6,5.00,000.00,022.7,021.4,000.0,031.1,024.1,16.4,0000.0,0002.73,0004.96,0002.15
2024-01-30 09:32:00,SystemResetWarning,0835.6,5.00,000.00,022.7,021.4,000.0,031.1,024.1,16.4,0000.0,0002.70,0004.72,0002.15
2024-01-30 09:33:00,SystemResetWarning,0835.6,5.01,000.00,022.7,021.4,000.0,031.1,024.1,16.4,0000.0,0002.67,0004.54,0002.14
2024-01-30 09:34:00,SystemResetWarning,0835.6,5.01,000.00,022.7,021.4,000.0,031.1,024.1,16.5,0000.0,0002.64,0004.08,0002.15
2024-01-30 09:35:00,SystemResetWarning,0835.6,5.00,000.00,022.7,021.4,000.0,031.0,024.0,16.5,0000.0,0002.63,0003.89,0002.16
2024-01-30 09:36:00,SystemResetWarning,0835.5,5.00,000.00,022.7,021.4,000.0,031.0,024.0,16.5,0000.0,0002.65,0003.97,0002.16
2024-01-30 09:37:00,SystemResetWarning,0835.5,5.00,000.00,022.7,021.4,000.0,031.0,024.0,16.5,0000.0,0002.62,0003.88,0002.16
2024-01-30 09:38:00,SystemResetWarning,0835.6,5.00,000.00,022.7,021.4,000.0,031.0,024.0,16.5,0000.0,0002.62,0003.77,0002.18
2024-01-30 09:39:00,SystemResetWarning,0835.5,5.00,000.00,022.6,021.4,000.0,031.0,024.0,16.5,0000.0,0002.64,0003.74,0002.20
2024-01-30 09:40:00,SystemResetWarning,0835.6,5.00,000.00,022.6,021.4,000.0,031.0,024.0,16.5,0000.0,0002.64,0003.81,0002.20
2024-01-30 09:41:00,SystemResetWarning,0835.5,5.00,000.00,022.6,021.4,000.0,031.0,024.0,16.5,0000.0,0002.61,0003.92,0002.21
2024-01-30 09:42:00,SystemResetWarning,0835.5,5.00,000.00,022.6,021.4,000.0,031.0,024.0,16.5,0000.0,0002.58,0004.61,0002.22
2024-01-30 09:43:00,SystemResetWarning,0835.5,5.01,000.00,022.6,021.4,000.0,031.0,024.0,16.5,0000.0,0002.59,0005.50,0002.24
2024-01-30 09:44:00,SystemResetWarning,0835.5,5.01,000.00,022.6,021.4,000.0,031.0,024.0,16.5,0000.0,0002.64,0005.65,0002.25
2024-01-30 09:45:00,SystemResetWarning,0835.6,5.00,000.00,022.6,021.3,000.0,031.0,024.0,16.5,0000.0,0002.65,0005.47,0002.26
2024-01-30 09:46:00,SystemResetWarning,0835.5,5.00,000.00,022.6,021.3,000.0,031.0,024.0,16.5,0000.0,0002.66,0005.64,0002.26
2024-01-30 09:47:00,SystemResetWarning,0835.5,5.00,000.00,022.6,021.3,000.0,030.9,024.0,16.5,0000.0,0002.67,0005.75,0002.25
2024-01-30 09:48:00,SystemResetWarning,0835.5,5.00,000.00,022.6,021.3,000.0,030.9,024.0,16.5,0000.0,0002.71,0005.86,0002.25
2024-01-30 09:49:00,SystemResetWarning,0835.5,4.99,000.00,022.6,021.3,000.0,030.9,023.9,16.5,0000.0,0002.74,0005.95,0002.26
2024-01-30 09:50:00,SystemResetWarning,0835.5,5.00,000.00,022.6,021.3,000.0,030.9,023.9,16.5,0000.0,0002.76,0006.04,0002.26
2024-01-30 09:51:00,SystemResetWarning,0835.4,5.00,000.00,022.6,021.3,000.0,030.9,023.9,16.5,0000.0,0002.79,0007.07,0002.27
2024-01-30 09:52:00,SystemResetWarning,0835.4,5.00,000.00,022.6,021.3,000.0,030.9,023.9,16.4,0000.0,0002.80,0006.94,0002.28
2024-01-30 09:53:00,SystemResetWarning,0835.4,4.99,000.00,022.6,021.3,000.0,030.9,023.9,16.4,0000.0,0002.84,0006.50,0002.29
2024-01-30 09:54:00,SystemResetWarning,0835.4,5.00,000.00,022.6,021.3,000.0,030.9,023.9,16.4,0000.0,0002.88,0005.49,0002.29
2024-01-30 09:55:00,SystemResetWarning,0835.5,5.00,000.00,022.5,021.3,000.0,030.9,023.9,16.5,0000.0,0002.90,0005.58,0002.31
2024-01-30 09:56:00,SystemResetWarning,0835.3,5.00,000.00,022.5,021.3,000.0,030.9,023.9,16.4,0000.0,0002.90,0005.77,0002.31
2024-01-30 09:57:00,SystemResetWarning,0835.4,5.00,000.00,022.5,021.3,000.0,030.9,023.9,16.5,0000.0,0002.89,0005.76,0002.31
2024-01-30 09:58:00,SystemResetWarning,0835.4,5.00,000.00,022.5,021.3,000.0,030.9,023.9,16.4,0000.0,0002.87,0006.10,0002.33
2024-01-30 09:59:00,SystemResetWarning,0835.2,5.01,000.00,022.5,021.3,000.0,030.9,023.9,16.4,0000.0,0002.87,0005.94,0002.35
